Regional Weather Roundup
Issued by NWS State College, PA

Home | Current Version | Previous Version | Graphics & Text | Print | Product List | Glossary On
Versions: 1 2 3 4 5 6 7 8 9 10 11 12 13 14 15 16 17 18 19 20 21 22 23 24 25 26 27 28 29 30 31 32 33 34 35 36 37 38 39 40 41 42 43 44 45 46 47 48 49 50
000
ASUS41 KCTP 251410
RWRCTP

REGIONAL WEATHER ROUNDUP
NATIONAL WEATHER SERVICE STATE COLLEGE PA
1000 AM EDT SAT OCT 25 2014

Note: "fair" indicates few or no clouds below 12,000 feet with no
significant weather and/or obstructions to visibility.

* = STATION THAT DOES NOT REPORT PRECIPITATION /E.G. RAIN...SNOW...ETC/
    THUNDER OR FOG.

PAZ002>004-007>009-013>016-020>023-029>032-251500-
WESTERN PENNSYLVANIA

CITY           SKY/WX    TMP DP  RH WIND       PRES   REMARKS
ERIE           PTSUNNY   58  47  66 SW14      29.83F
MEADVILLE      CLOUDY    52  44  74 S9        29.87F
FRANKLIN*      CLOUDY    50  41  71 SW8       29.91S
NEW CASTLE       N/A     50  44  79 CALM      29.93F
BEAVER COUNTY  CLOUDY    52  43  71 SW8       29.94F
BUTLER*        MOSUNNY   52  41  66 SW10      29.95F
PITTSBURGH INT CLOUDY    52  42  69 SW8       29.95F
PITTSBURGH     PTSUNNY   52  39  61 SW7       29.95S
INDIANA*       PTSUNNY   52  43  71 W10       29.97F
LATROBE        PTSUNNY   52  45  76 SW17      29.97F
WASHINGTON CO* CLOUDY    52  41  66 SW7       29.99S
$$

PAZ004>006-010>012-017>019-024>028-033>037-041-042-045-046-049>053-251500-
CENTRAL PENNSYLVANIA

CITY           SKY/WX    TMP DP  RH WIND       PRES   REMARKS
BRADFORD       PTSUNNY   49  40  71 VRB5      29.86F
DUBOIS         MOSUNNY   50  41  71 SW8       29.89F
CLEARFIELD     MOSUNNY   49  41  74 S9        29.90F
JOHNSTOWN      SUNNY     52  39  61 W13       29.93F
ALTOONA        SUNNY     54  42  64 SW12      29.92F
STATE COLLEGE  PTSUNNY   52  41  66 SW7       29.91F
WILLIAMSPORT   CLOUDY    48  40  73 CALM      29.90F
SELINSGROVE    MOSUNNY   49  43  80 CALM      29.91F
FT INDIANTOWN  NOT AVBL
CAPITAL CITY   SUNNY     56  42  59 W8        29.92F
HARRISBURG     MOSUNNY   54  44  69 CALM      29.92F
YORK           SUNNY     59  41  51 W9        29.92F
$$

PAZ038>040-043-044-047-048-054-055-060>062-067>071-251500-
EASTERN PENNSYLVANIA

CITY           SKY/WX    TMP DP  RH WIND       PRES   REMARKS
SCRANTON       CLOUDY    49  37  63 SW6       29.88S
MOUNT POCONO   SUNNY     50  35  56 W8        29.86S
ALLENTOWN      SUNNY     56  39  53 SW6       29.89F
QUAKERTOWN*    SUNNY     55  41  58 W3        29.90F
READING        SUNNY     58  42  55 CALM      29.90F
LANCASTER      SUNNY     55  43  63 W7        29.92F
COATESVILLE    SUNNY     55  41  58 NW10      29.92F
POTTSTOWN      SUNNY     54  41  61 W5        29.91F
BLUE BELL      SUNNY     55  43  62 W3        29.90S
DOYLESTOWN     SUNNY     54  39  57 SW3       29.89S
WILLOW GROVE   NOT AVBL
NORTH PHILA    SUNNY     60  39  45 W9        29.91F
PHILADELPHIA   MOSUNNY   59  41  51 W8        29.91F
$$



USA.gov is the U.S. government's official web portal to all federal, state and local government web resources and services.